User: anonymous   Login
Location: Unspecified
(0.0000°N, 0.0000°E)
Time: 21:29:38
(UTC+00:00)
Language:

SAUDISAT 3 - Orbit

View from above orbital plane
View from above orbital plane
View from above satellite
View from above satellite

Ground track
Ground track

The orbit data is extracted from the following two-line orbital elements,

1 31118U 07012B   18340.80681860 -.00000047  00000-0 -71478-7 0  9994
2 31118  97.7874 312.2352 0015201 353.0915   7.0081 14.69116730623949
Epoch (UTC): 06 December 2018 19:21:49
Eccentricity: 0.0015201
inclination: 97.7874°
perigee height: 653 km
apogee height: 674 km
right ascension of ascending node: 312.2352°
argument of perigee: 353.0915°
revolutions per day: 14.69116730
mean anomaly at epoch: 7.0081°
orbit number at epoch: 62394

The dashed part of the orbit path shows where the satellite is in the earth's shadow,  

DLR